KD4EG Weather Reports


time (UTC)temp
C
wind
direction
speed
KPH
gust
KPH
rain 1hr
cm
rain 24hr
cm
rain mn
cm
humidity
%
barometer
mb
20260510153758 24 188 11.3 17.7 0.00 0.00 0.00 50 1017.8
20260510153254 23 209 4.8 8.0 0.00 0.00 0.00 53 1017.8
20260510152751 23 278 6.4 9.7 0.00 0.00 0.00 53 1017.7
20260510152248 23 269 4.8 8.0 0.00 0.00 0.00 53 1017.7
20260510151744 23 286 4.8 9.7 0.00 0.00 0.00 52 1017.8
20260510151243 23 312 4.8 8.0 0.00 0.00 0.00 54 1017.9
20260510150738 23 306 4.8 8.0 0.00 0.00 0.00 53 1017.9
20260510150234 23 303 1.6 3.2 0.00 0.00 0.00 54 1018.0
20260510145731 22 285 1.6 3.2 0.00 0.00 0.00 55 1017.9
20260510145227 22 191 8.0 9.7 0.00 0.00 0.00 55 1018.0
20260510144723 22 239 9.7 14.5 0.00 0.00 0.00 57 1018.1
20260510144221 22 212 4.8 4.8 0.00 0.00 0.00 56 1018.0
20260510143714 22 264 9.7 11.3 0.00 0.00 0.00 57 1018.0
20260510143211 22 188 3.2 4.8 0.00 0.00 0.00 58 1017.9
20260510142708 21 288 4.8 8.0 0.00 0.00 0.00 58 1017.9
20260510142204 21 327 9.7 12.9 0.00 0.00 0.00 60 1018.2
20260510141701 21 316 11.3 12.9 0.00 0.00 0.00 59 1018.2
20260510141200 20 115 1.6 3.2 0.00 0.00 0.00 61 1018.1
20260510140656 20 3 4.8 4.8 0.00 0.00 0.00 62 1017.9
20260510140155 20 311 8.0 12.9 0.00 0.00 0.00 63 1018.2
20260510135650 20 293 1.6 3.2 0.00 0.00 0.00 64 1018.3
20260510135147 19 33 1.6 3.2 0.00 0.00 0.00 65 1018.2
20260510134644 20 342 8.0 11.3 0.00 0.00 0.00 65 1018.3
20260510134141 19 9 11.3 16.1 0.00 0.00 0.00 65 1018.4
20260510133637 19 197 8.0 11.3 0.00 0.00 0.00 65 1018.4
20260510133132 19 236 4.8 4.8 0.00 0.00 0.00 66 1018.2
20260510132629 18 323 6.4 11.3 0.00 0.00 0.00 67 1018.2
20260510132127 18 310 4.8 4.8 0.00 0.00 0.00 67 1018.2
20260510131624 18 275 4.8 8.0 0.00 0.00 0.00 67 1018.3
20260510131121 18 242 1.6 1.6 0.00 0.00 0.00 67 1018.2
20260510130618 17 346 3.2 3.2 0.00 0.00 0.00 68 1018.3
20260510130115 17 310 3.2 4.8 0.00 0.00 0.00 69 1018.0
20260510125612 17 259 11.3 12.9 0.00 0.00 0.00 69 1018.4
20260510125108 17 6 6.4 9.7 0.00 0.00 0.00 69 1018.3
20260510124604 17 317 3.2 4.8 0.00 0.00 0.00 70 1018.1
20260510124102 17 301 3.2 3.2 0.00 0.00 0.00 71 1018.1
20260510123556 16 13 3.2 4.8 0.00 0.00 0.00 72 1018.2
20260510123053 16 301 8.0 12.9 0.00 0.00 0.00 74 1018.1
20260510122549 16 166 4.8 9.7 0.00 0.00 0.00 75 1018.1
20260510122045 15 266 1.6 3.2 0.00 0.00 0.00 76 1018.1
20260510121543 15 294 4.8 4.8 0.00 0.00 0.00 78 1018.0
20260510121040 15 300 4.8 4.8 0.00 0.00 0.00 79 1018.1
20260510120537 14 309 3.2 4.8 0.00 0.00 0.00 80 1017.9
20260510120032 14 259 4.8 8.0 0.00 0.00 0.00 81 1018.0
20260510115529 13 325 1.6 3.2 0.00 0.00 0.00 82 1018.0
20260510115026 13 204 3.2 4.8 0.00 0.00 0.00 83 1017.8
20260510114522 13 293 3.2 4.8 0.00 0.00 0.00 84 1017.8
20260510114019 12 291 1.6 3.2 0.00 0.00 0.00 84 1017.8
20260510113514 12 313 1.6 3.2 0.00 0.00 0.00 85 1017.5
20260510113012 12 299 3.2 4.8 0.00 0.00 0.00 85 1017.9
20260510112508 12 333 1.6 3.2 0.00 0.00 0.00 85 1017.6
20260510112005 12 329 3.2 3.2 0.00 0.00 0.00 86 1017.5
20260510111501 12 317 3.2 3.2 0.00 0.00 0.00 86 1017.5
20260510110957 12 285 0.0 1.6 0.00 0.00 0.00 86 1017.3
20260510110454 11 306 4.8 4.8 0.00 0.00 0.00 87 1017.2
20260510105950 11 306 3.2 3.2 0.00 0.00 0.00 87 1017.2
20260510105445 11 302 1.6 1.6 0.00 0.00 0.00 87 1017.0
20260510104940 11 304 1.6 3.2 0.00 0.00 0.00 88 1016.8
20260510104437 11 339 1.6 1.6 0.00 0.00 0.00 88 1016.7
20260510103933 11 298 3.2 3.2 0.00 0.00 0.00 88 1016.7
20260510103431 11 294 1.6 1.6 0.00 0.00 0.00 87 1016.8
20260510102926 11 325 1.6 1.6 0.00 0.00 0.00 87 1016.9
20260510102422 11 292 0.0 0.0 0.00 0.00 0.00 87 1016.6
20260510101919 11 216 1.6 3.2 0.00 0.00 0.00 86 1016.4
20260510101417 11 252 1.6 3.2 0.00 0.00 0.00 86 1016.3
20260510100915 11 260 0.0 1.6 0.00 0.00 0.00 86 1016.5
20260510100411 11 251 1.6 1.6 0.00 0.00 0.00 86 1016.4
20260510095908 11 302 8.0 9.7 0.00 0.00 0.00 86 1016.4
20260510095403 11 353 6.4 9.7 0.00 0.00 0.00 86 1016.4
20260510094902 11 284 1.6 1.6 0.00 0.00 0.00 86 1016.6
20260510094357 11 241 3.2 3.2 0.00 0.00 0.00 87 1016.3
20260510093854 11 61 1.6 1.6 0.00 0.00 0.00 87 1016.4
20260510093349 11 33 3.2 3.2 0.00 0.00 0.00 87 1016.2
20260510092846 11 42 1.6 1.6 0.00 0.00 0.00 88 1016.0
20260510092343 11 334 1.6 1.6 0.00 0.00 0.00 87 1015.9
20260510091838 11 15 1.6 3.2 0.00 0.00 0.00 86 1015.9
20260510091336 11 335 1.6 1.6 0.00 0.00 0.00 85 1015.7
20260510090832 12 117 3.2 3.2 0.00 0.00 0.00 83 1015.8
20260510090329 13 184 3.2 3.2 0.00 0.00 0.00 81 1016.0
20260510085824 13 147 4.8 4.8 0.00 0.00 0.00 78 1015.7
20260510085324 13 254 1.6 1.6 0.00 0.00 0.00 78 1015.7
20260510084820 13 336 4.8 4.8 0.00 0.00 0.00 78 1015.7
20260510084317 13 333 6.4 8.0 0.00 0.00 0.00 78 1015.7
20260510083814 14 286 4.8 4.8 0.00 0.00 0.00 77 1015.7
20260510083311 14 306 6.4 8.0 0.00 0.00 0.00 77 1015.5
20260510082806 14 315 4.8 4.8 0.00 0.00 0.00 77 1015.7
20260510082306 14 118 4.8 12.9 0.00 0.00 0.00 76 1015.6
20260510081802 15 356 6.4 8.0 0.00 0.00 0.00 74 1015.4
20260510081259 13 309 3.2 4.8 0.00 0.00 0.00 78 1015.3
20260510080754 13 321 4.8 8.0 0.00 0.00 0.00 79 1015.3
20260510080250 14 274 3.2 4.8 0.00 0.00 0.00 76 1015.4
20260510075747 15 294 3.2 3.2 0.00 0.00 0.00 73 1015.2
20260510075245 15 299 1.6 3.2 0.00 0.00 0.00 72 1015.2
20260510074741 15 273 8.0 11.3 0.00 0.00 0.00 72 1015.2
20260510074238 15 135 3.2 4.8 0.00 0.00 0.00 72 1015.0
20260510073734 14 309 9.7 11.3 0.00 0.00 0.00 75 1015.2
20260510073230 13 304 3.2 3.2 0.00 0.00 0.00 78 1015.0
20260510072726 13 299 1.6 1.6 0.00 0.00 0.00 80 1015.3
20260510072223 12 303 0.0 1.6 0.00 0.00 0.00 80 1015.0
20260510071719 12 290 1.6 1.6 0.00 0.00 0.00 80 1015.2
20260510071216 12 269 3.2 3.2 0.00 0.00 0.00 81 1015.0
20260510070714 12 279 1.6 1.6 0.00 0.00 0.00 82 1015.1
20260510070211 12 317 0.0 1.6 0.00 0.00 0.00 83 1014.9
20260510065706 12 300 0.0 1.6 0.00 0.00 0.00 84 1014.8
20260510065203 11 295 1.6 1.6 0.00 0.00 0.00 85 1014.8
20260510064659 11 290 0.0 1.6 0.00 0.00 0.00 86 1015.0
20260510064156 11 305 0.0 0.0 0.00 0.00 0.00 86 1014.9
20260510063654 11 299 0.0 1.6 0.00 0.00 0.00 86 1014.9
20260510063150 11 302 1.6 1.6 0.00 0.00 0.00 85 1015.0
20260510062646 11 301 3.2 3.2 0.00 0.00 0.00 84 1015.2
20260510062142 12 303 1.6 1.6 0.00 0.00 0.00 83 1015.3
20260510061637 12 307 1.6 1.6 0.00 0.00 0.00 81 1015.1
20260510061135 12 267 0.0 1.6 0.00 0.00 0.00 81 1015.3
20260510060631 12 296 1.6 1.6 0.00 0.00 0.00 81 1015.1
20260510060128 12 302 0.0 0.0 0.00 0.00 0.00 81 1015.1
20260510055624 12 304 0.0 1.6 0.00 0.00 0.00 80 1015.1
20260510055123 12 323 0.0 0.0 0.00 0.00 0.00 80 1015.3
20260510054617 13 303 0.0 0.0 0.00 0.00 0.00 80 1015.3
20260510054113 13 293 0.0 1.6 0.00 0.00 0.00 80 1015.4
20260510053612 13 305 1.6 1.6 0.00 0.00 0.00 80 1015.2
20260510053110 12 315 3.2 3.2 0.00 0.00 0.00 82 1015.2
20260510052605 12 304 0.0 1.6 0.00 0.00 0.00 82 1015.2
20260510052102 12 336 1.6 1.6 0.00 0.00 0.00 81 1015.2
20260510051558 12 309 3.2 3.2 0.00 0.00 0.00 81 1015.0
20260510051055 12 326 4.8 4.8 0.00 0.00 0.00 80 1015.3
20260510050552 12 304 1.6 1.6 0.00 0.00 0.00 80 1015.1
20260510050049 12 304 3.2 3.2 0.00 0.00 0.00 80 1015.0
20260510045546 12 308 0.0 1.6 0.00 0.00 0.00 80 1015.1
20260510045042 13 306 0.0 0.0 0.00 0.00 0.00 79 1015.0
20260510044539 13 308 1.6 1.6 0.00 0.00 0.00 79 1015.0
20260510044036 13 307 1.6 1.6 0.00 0.00 0.00 78 1014.9
20260510043532 13 281 4.8 4.8 0.00 0.00 0.00 79 1014.9
20260510043027 13 305 1.6 3.2 0.00 0.00 0.00 78 1015.3
20260510042522 13 302 1.6 1.6 0.00 0.00 0.00 77 1015.1
20260510042022 13 303 1.6 1.6 0.00 0.00 0.00 77 1015.1
20260510041520 13 310 0.0 0.0 0.00 0.00 0.00 76 1015.0
20260510041017 13 9 1.6 1.6 0.00 0.00 0.00 76 1015.0
20260510040513 14 326 0.0 1.6 0.00 0.00 0.00 76 1015.0
20260510040009 14 307 1.6 1.6 0.00 0.00 0.00 75 1014.8
20260510035506 14 303 0.0 0.0 0.00 0.00 0.00 75 1014.7
20260510035005 14 325 0.0 0.0 0.00 0.00 0.00 75 1014.8
20260510034504 14 324 0.0 1.6 0.00 0.00 0.00 74 1015.0
20260510034000 15 284 0.0 1.6 0.00 0.00 0.00 73 1015.0
20260510033456 15 312 1.6 1.6 0.00 0.00 0.00 73 1014.8
20260510032954 15 4 1.6 1.6 0.00 0.00 0.00 73 1014.7
20260510032450 15 303 0.0 0.0 0.00 0.00 0.00 73 1014.5
20260510031945 15 299 1.6 3.2 0.00 0.00 0.00 72 1014.7
20260510031441 15 320 0.0 0.0 0.00 0.00 0.00 71 1014.7
20260510030937 15 263 1.6 3.2 0.00 0.00 0.00 70 1014.9
20260510030432 15 311 0.0 0.0 0.00 0.00 0.00 71 1014.7
20260510025930 15 304 0.0 1.6 0.00 0.00 0.00 71 1014.4
20260510025427 14 305 1.6 1.6 0.00 0.00 0.00 73 1014.4
20260510024924 14 325 0.0 1.6 0.00 0.00 0.00 74 1014.5
20260510024420 15 294 3.2 3.2 0.00 0.00 0.00 74 1014.3
20260510023917 15 289 4.8 4.8 0.00 0.00 0.00 73 1014.2
20260510023413 15 325 1.6 3.2 0.00 0.00 0.00 73 1014.3
20260510022911 15 303 3.2 3.2 0.00 0.00 0.00 73 1014.4
20260510022409 15 298 3.2 3.2 0.00 0.00 0.00 72 1014.4
20260510021909 15 297 3.2 3.2 0.00 0.00 0.00 71 1014.4
20260510021407 15 325 3.2 3.2 0.00 0.00 0.00 70 1014.3
20260510020903 15 288 1.6 3.2 0.00 0.00 0.00 70 1014.5
20260510020358 15 301 3.2 3.2 0.00 0.00 0.00 69 1014.3
20260510015854 15 303 1.6 1.6 0.00 0.00 0.00 68 1014.1
20260510015350 16 304 0.0 0.0 0.00 0.00 0.00 67 1014.1
20260510014845 16 298 1.6 1.6 0.00 0.00 0.00 67 1013.9
20260510014343 16 301 1.6 1.6 0.00 0.00 0.00 66 1013.9
20260510013839 16 302 1.6 1.6 0.00 0.00 0.00 65 1013.8
20260510013335 16 306 0.0 1.6 0.00 0.00 0.00 64 1013.5
20260510012830 16 320 0.0 1.6 0.00 0.00 0.00 64 1013.4
20260510012330 17 336 1.6 1.6 0.00 0.00 0.00 62 1013.0
20260510011825 17 1 1.6 1.6 0.00 0.00 0.00 62 1013.2
20260510011320 17 302 1.6 1.6 0.00 0.00 0.00 61 1012.9
20260510010817 17 300 1.6 1.6 0.00 0.00 0.00 59 1012.8
20260510010314 17 303 3.2 3.2 0.00 0.00 0.00 59 1012.8
20260510005811 17 303 3.2 3.2 0.00 0.00 0.00 59 1012.8
20260510005307 17 300 1.6 1.6 0.00 0.00 0.00 60 1012.9
20260510004805 18 301 1.6 1.6 0.00 0.00 0.00 58 1012.8
20260510004302 18 298 3.2 3.2 0.00 0.00 0.00 57 1012.8
20260510003759 19 299 3.2 3.2 0.00 0.00 0.00 55 1012.7
20260510003257 19 318 3.2 3.2 0.00 0.00 0.00 53 1012.8
20260510002755 20 325 3.2 3.2 0.00 0.00 0.00 52 1012.7
20260510002253 20 304 1.6 1.6 0.00 0.00 0.00 50 1012.6
20260510001749 21 295 1.6 3.2 0.00 0.00 0.00 49 1012.5
20260510001248 20 331 1.6 3.2 0.00 0.00 0.00 47 1012.4
20260510000743 21 301 3.2 3.2 0.00 0.00 0.00 48 1012.5
20260510000241 21 295 3.2 3.2 0.00 0.00 0.00 48 1012.3
20260509235737 21 329 3.2 3.2 0.00 0.00 0.00 47 1012.1
20260509235234 21 303 3.2 3.2 0.00 0.00 0.00 46 1012.2
20260509234729 21 285 3.2 3.2 0.00 0.00 0.00 45 1012.0
20260509234227 22 269 6.4 8.0 0.00 0.00 0.00 45 1011.9
20260509233725 22 300 1.6 3.2 0.00 0.00 0.00 44 1012.1
20260509233222 22 303 3.2 3.2 0.00 0.00 0.00 43 1011.8
20260509232718 23 273 8.0 9.7 0.00 0.00 0.00 42 1011.9
20260509232216 23 266 4.8 8.0 0.00 0.00 0.00 42 1012.0
20260509231712 23 332 4.8 4.8 0.00 0.00 0.00 42 1011.9
20260509231209 23 311 6.4 9.7 0.00 0.00 0.00 42 1011.8
20260509230707 23 250 11.3 14.5 0.00 0.00 0.00 41 1011.9
20260509230203 23 287 4.8 4.8 0.00 0.00 0.00 42 1011.5
20260509225659 23 308 12.9 16.1 0.00 0.00 0.00 41 1011.7
20260509225154 24 284 6.4 11.3 0.00 0.00 0.00 42 1011.8
20260509224651 24 307 4.8 8.0 0.00 0.00 0.00 42 1011.5
20260509224148 24 272 3.2 8.0 0.00 0.00 0.00 42 1011.5
20260509223644 23 292 1.6 1.6 0.00 0.00 0.00 43 1011.7
20260509223142 23 305 3.2 3.2 0.00 0.00 0.00 45 1011.7
20260509222639 23 304 3.2 3.2 0.00 0.00 0.00 44 1011.5
20260509222134 23 286 3.2 3.2 0.00 0.00 0.00 44 1011.6
20260509221630 23 296 3.2 4.8 0.00 0.00 0.00 42 1011.4
20260509221126 23 312 3.2 4.8 0.00 0.00 0.00 42 1011.5
20260509220622 23 83 4.8 4.8 0.00 0.00 0.00 42 1011.5
20260509220118 24 136 8.0 9.7 0.00 0.00 0.00 42 1011.3
20260509215614 24 263 6.4 11.3 0.00 0.00 0.00 41 1011.3
20260509215111 23 347 3.2 4.8 0.00 0.00 0.00 42 1011.6
20260509214608 23 235 8.0 12.9 0.00 0.00 0.00 42 1011.6
20260509214105 23 312 4.8 4.8 0.00 0.00 0.00 44 1011.4
20260509213601 23 288 8.0 11.3 0.00 0.00 0.00 44 1011.1
20260509213058 23 303 6.4 8.0 0.00 0.00 0.00 43 1011.3
20260509212555 24 158 4.8 8.0 0.00 0.00 0.00 42 1011.3
20260509212052 23 330 1.6 3.2 0.00 0.00 0.00 43 1011.0
20260509211548 23 308 4.8 9.7 0.00 0.00 0.00 43 1011.0
20260509211044 23 148 8.0 12.9 0.00 0.00 0.00 43 1010.8
20260509210542 24 336 6.4 8.0 0.00 0.00 0.00 43 1010.9
20260509210038 24 196 6.4 8.0 0.00 0.00 0.00 42 1011.0
20260509205538 24 261 4.8 8.0 0.00 0.00 0.00 42 1011.1
20260509205033 24 256 6.4 9.7 0.00 0.00 0.00 42 1011.3
20260509204530 23 315 6.4 8.0 0.00 0.00 0.00 42 1011.0
20260509204026 23 316 6.4 11.3 0.00 0.00 0.00 42 1011.0
20260509203522 23 338 8.0 9.7 0.00 0.00 0.00 41 1010.9
20260509203022 23 193 1.6 3.2 0.00 0.00 0.00 42 1010.7
20260509202521 24 324 4.8 9.7 0.00 0.00 0.00 41 1011.0
20260509202017 24 197 1.6 3.2 0.00 0.00 0.00 40 1010.9
20260509201512 24 302 4.8 9.7 0.00 0.00 0.00 40 1010.8
20260509201010 24 322 1.6 1.6 0.00 0.00 0.00 41 1010.8
20260509200504 24 202 8.0 11.3 0.00 0.00 0.00 41 1010.8
20260509200001 23 2 8.0 11.3 0.00 0.00 0.00 41 1010.9
20260509195456 23 274 4.8 4.8 0.00 0.00 0.00 41 1010.9
20260509194955 23 60 6.4 11.3 0.00 0.00 0.00 42 1010.8
20260509194451 23 311 8.0 11.3 0.00 0.00 0.00 42 1010.9
20260509193949 24 145 11.3 12.9 0.00 0.00 0.00 41 1010.9
20260509193449 25 325 14.5 25.7 0.00 0.00 0.00 40 1010.9
20260509192945 25 330 9.7 16.1 0.00 0.00 0.00 41 1011.0
20260509192442 24 305 4.8 8.0 0.00 0.00 0.00 41 1010.9
20260509191937 25 240 9.7 11.3 0.00 0.00 0.00 41 1010.9
20260509191432 25 32 1.6 3.2 0.00 0.00 0.00 41 1011.2
20260509190928 24 158 8.0 9.7 0.00 0.00 0.00 42 1011.1
20260509190426 24 141 4.8 8.0 0.00 0.00 0.00 43 1011.1
20260509185923 24 216 8.0 11.3 0.00 0.00 0.00 42 1011.1
20260509185421 25 339 3.2 4.8 0.00 0.00 0.00 41 1011.3
20260509184917 25 294 16.1 24.1 0.00 0.00 0.00 41 1011.2
20260509184414 24 319 8.0 12.9 0.00 0.00 0.00 42 1011.3
20260509183911 24 245 9.7 12.9 0.00 0.00 0.00 42 1011.2
20260509183405 24 207 12.9 17.7 0.00 0.00 0.00 41 1011.3
20260509182902 24 175 9.7 14.5 0.00 0.00 0.00 41 1011.4
20260509182359 24 174 19.3 25.7 0.00 0.00 0.00 41 1011.6
20260509181856 24 239 11.3 14.5 0.00 0.00 0.00 44 1011.5
20260509181347 23 160 8.0 11.3 0.00 0.00 0.00 43 1011.7
20260509180845 23 216 8.0 9.7 0.00 0.00 0.00 43 1011.9
20260509180341 23 197 4.8 8.0 0.00 0.00 0.00 44 1011.9
20260509175838 23 223 12.9 25.7 0.00 0.00 0.00 44 1011.6
20260509175334 23 351 8.0 11.3 0.00 0.00 0.00 43 1012.0
20260509174830 23 194 6.4 9.7 0.00 0.00 0.00 44 1012.0
20260509174326 23 200 6.4 8.0 0.00 0.00 0.00 44 1011.8
20260509173822 23 70 8.0 9.7 0.00 0.00 0.00 45 1011.9
20260509173317 23 250 1.6 3.2 0.00 0.00 0.00 46 1012.1
20260509172814 23 156 9.7 11.3 0.00 0.00 0.00 54 1012.2
20260509172311 23 173 9.7 12.9 0.00 0.00 0.00 52 1012.1
20260509171806 23 224 4.8 4.8 0.00 0.00 0.00 54 1012.1
20260509171302 23 98 6.4 9.7 0.00 0.00 0.00 54 1011.9
20260509170759 21 233 4.8 4.8 0.00 0.00 0.00 55 1012.1
20260509170255 22 181 4.8 4.8 0.00 0.00 0.00 55 1012.3
20260509165754 22 148 9.7 12.9 0.00 0.00 0.00 57 1012.3
20260509165250 22 176 16.1 22.5 0.00 0.00 0.00 59 1012.4
20260509164746 21 298 6.4 11.3 0.00 0.00 0.00 60 1012.7
20260509164241 21 166 8.0 11.3 0.00 0.00 0.00 58 1012.9
20260509163738 21 221 6.4 9.7 0.00 0.00 0.00 58 1012.9
20260509163235 21 250 8.0 11.3 0.00 0.00 0.00 59 1012.9
20260509162733 21 209 9.7 11.3 0.00 0.00 0.00 59 1012.8
20260509162228 22 250 4.8 8.0 0.00 0.00 0.00 57 1012.7
20260509161723 22 152 6.4 8.0 0.00 0.00 0.00 58 1012.7
20260509161220 21 278 6.4 8.0 0.00 0.00 0.00 59 1012.7
20260509160715 21 200 3.2 4.8 0.00 0.00 0.00 59 1012.4
20260509160212 21 314 6.4 8.0 0.00 0.00 0.00 56 1012.8
20260509155707 21 286 1.6 1.6 0.00 0.00 0.00 57 1012.8
20260509155204 21 306 4.8 8.0 0.00 0.00 0.00 56 1012.7
20260509154700 21 312 4.8 4.8 0.00 0.00 0.00 57 1012.5
20260509154157 20 204 4.8 4.8 0.00 0.00 0.00 59 1012.7